[[{"header":{"parameterUnit":"m.s-1","parameterCategory":1,"la1":30.2991,"la2":30.254,"lo1":-89.0895,"lo2":-89.0444,"dy":0.0017,"dx":0.0017,"nx":28,"ny":28,"refTime":"2025-01-20T03:00:00:Z","depth":0,"parameterNumber":2,"parameterNumberName":"U-component_of_WINDS"},"data":[0,0,0,0,0,0,0,0,0,0,0,0,0,0,0,0,0,0,0,0,0,0,0,0,0,0,0,0,0,0,0,0,0,0,0,0,0,0,0,0,0,0,0,0,0,0,0,0,0,0,0,0,0,0,0,0,0,0,-2.2612,-2.2613,0,-2.2652,-2.2653,-2.2653,-2.2584,-2.2582,-2.258,-2.2578,-2.2619,-2.2622,-2.2625,0,0,0,0,0,0,0,0,0,0,0,0,0,-2.2475,-2.2477,-2.2612,-2.2613,-2.2613,-2.2652,-2.2653,-2.2653,-2.2585,-2.2582,-2.2579,-2.2577,-2.2617,-2.2621,-2.2625,0,0,0,0,0,0,0,0,0,0,0,0,0,-2.2527,-2.2478,-2.2612,-2.2584,-2.2582,-2.2652,-2.2653,-2.2654,-2.2585,-2.2582,-2.2578,-2.2575,-2.2616,-2.2621,-2.2626,-2.2726,0,0,-2.2641,-2.2643,0,0,0,0,0,0,0,0,-2.2524,-2.2532,-2.2587,-2.2586,-2.2583,-2.261,-2.2619,-2.2678,-2.2586,-2.2584,-2.2578,-2.2573,-2.2618,-2.2623,-2.2638,-2.2728,-2.273,-2.2641,-2.2644,-2.2646,-2.2648,0,0,0,0,0,0,0,-2.252,-2.253,-2.2628,-2.2588,-2.2586,-2.2568,-2.2572,-2.263,-2.262,-2.2584,-2.2579,-2.2585,-2.2617,-2.2634,-2.2639,-2.273,-2.2641,-2.2645,-2.2648,-2.265,-2.2904,-2.2907,0,0,0,0,0,0,-2.252,-2.2527,-2.2627,-2.2629,-2.2544,-2.2574,-2.2578,-2.2605,-2.262,-2.2618,-2.2588,-2.2581,-2.2627,-2.2633,-2.264,-2.2759,-2.2646,-2.2651,-2.2654,-2.29,-2.2905,-2.2909,0,0,0,0,0,0,-2.2518,-2.253,-2.2625,-2.2577,-2.2588,-2.258,-2.2611,-2.2608,-2.2624,-2.2622,-2.262,-2.2607,-2.2624,-2.2633,-2.2705,-2.2759,-2.2653,-2.2657,-2.2896,-2.2901,-2.2907,-2.2997,0,0,0,0,0,0,-2.2514,-2.2529,-2.2568,-2.2578,-2.259,-2.2691,-2.2614,-2.2611,-2.2633,-2.2625,-2.264,-2.2639,-2.2622,-2.2698,-2.271,-2.2764,-2.2661,-2.2891,-2.2898,-2.2905,-2.2989,-2.3005,-2.3019,0,0,0,0,0,-2.2509,-2.2591,-2.257,-2.2582,-2.2639,-2.2694,-2.2701,-2.268,-2.2638,-2.2676,-2.2675,-2.2638,-2.2751,-2.2706,-2.2719,-2.2775,-2.2887,-2.2896,-2.2904,-2.2983,-2.3002,-2.3018,0,0,0,0,0,0,-2.2588,-2.2592,-2.2569,-2.2657,-2.2676,-2.2682,-2.273,-2.2701,-2.2732,-2.2724,-2.2696,-2.27,-2.2778,-2.2783,-2.2734,-2.2873,-2.2812,-2.2823,-2.2867,-2.2885,-2.29,-2.2898,-2.2665,0,0,0,0,0,-2.2615,-2.266,-2.2661,-2.2739,-2.275,-2.2738,-2.2762,-2.2744,-2.2762,-2.277,-2.2773,-2.2792,-2.2831,-2.2858,-2.2894,-2.2989,-2.2991,-2.3033,-2.3048,-2.306,-2.3071,-2.3122,-2.3141,-2.2937,-2.2937,-2.2937,0,0,-2.2673,-2.2681,-2.2711,-2.2755,-2.2767,-2.2814,-2.2746,-2.2798,-2.2833,-2.2778,-2.2847,-2.285,-2.2868,-2.2952,-2.2989,-2.2959,-2.3128,-2.3071,-2.3081,-2.3085,-2.3132,-2.3152,-2.3169,-2.2943,-2.2942,-2.2941,0,0,-2.2802,-2.2812,-2.2879,-2.2892,-2.2911,-2.2903,-2.2919,-2.293,-2.293,-2.2998,-2.2958,-2.2998,-2.3066,-2.3082,-2.3099,-2.3232,-2.32,-2.3244,-2.3322,-2.3372,-2.3388,-2.3402,-2.3451,-2.3468,-2.3254,-2.3255,-2.3255,0,-2.2872,-2.2941,-2.2916,-2.2972,-2.2992,-2.2944,-2.3011,-2.3025,-2.3055,-2.307,-2.3035,-2.312,-2.3129,-2.3216,-2.3249,-2.3263,-2.3281,-2.3244,-2.3387,-2.3401,-2.3414,-2.346,-2.3479,-2.326,-2.326,-2.3259,-2.3258,0,-2.3026,-2.3074,-2.3125,-2.3156,-2.3182,-2.3243,-2.3227,-2.3256,-2.3235,-2.323,-2.33,-2.3309,-2.3347,-2.3365,-2.3346,-2.345,-2.343,-2.3392,-2.3331,-2.344,-2.3482,-2.35,-2.3268,-2.3266,-2.3264,-2.3263,0,0,-2.3208,-2.3223,-2.3243,-2.3256,-2.3273,-2.331,-2.3368,-2.3404,-2.343,-2.3452,-2.35,-2.3558,-2.3523,-2.3542,-2.3523,-2.3566,-2.3672,-2.3522,-2.3522,-2.3551,-2.3788,-2.3819,-2.3839,-2.365,-2.3653,-2.3656,-2.3787,0,-2.3338,-2.3439,-2.3417,-2.3517,-2.3561,-2.3515,-2.3565,-2.3581,-2.3578,-2.3615,-2.361,-2.3653,-2.3602,-2.3613,-2.3653,-2.3651,-2.372,-2.3641,-2.3696,-2.3698,-2.3695,-2.3862,-2.3894,-2.4018,-2.3803,-2.3806,-2.3808,0,-2.3504,-2.3532,-2.3636,-2.3645,-2.3663,-2.3709,-2.374,-2.3776,-2.3792,-2.3787,-2.3808,-2.378,-2.3837,-2.3773,-2.3852,-2.3799,-2.3819,-2.3821,-2.3825,-2.3832,-2.3762,-2.3874,-2.4056,-2.4076,-2.3834,-2.3832,-2.383,0,-2.3628,-2.3692,-2.3762,-2.3775,-2.3787,-2.3821,-2.3827,-2.384,-2.3863,-2.389,-2.3905,-2.3938,-2.3956,-2.3982,-2.3964,-2.3919,-2.4046,-2.3981,-2.4044,-2.4044,-2.4074,-2.4073,-2.4265,-2.4084,-2.4084,-2.4084,-2.4083,0,-2.3777,-2.3843,-2.3819,-2.3862,-2.3934,-2.3908,-2.3979,-2.398,-2.3992,-2.4035,-2.3995,-2.4036,-2.4009,-2.4047,-2.4033,-2.4101,-2.4109,-2.4106,-2.4102,-2.4111,-2.4112,-2.4126,-2.4118,-2.4089,-2.4088,-2.4087,-2.4086,0,-2.393,-2.3916,-2.399,-2.3995,-2.3998,-2.4051,-2.4055,-2.4095,-2.4088,-2.4142,-2.4153,-2.4142,-2.4185,-2.4169,-2.4215,-2.4205,-2.4292,-2.4275,-2.4287,-2.4284,-2.4348,-2.4343,-2.4557,-2.4584,-2.4385,-2.4387,-2.4388,0,-2.4027,-2.4076,-2.4086,-2.4112,-2.4122,-2.4164,-2.4187,-2.4162,-2.4188,-2.4209,-2.4247,-2.4287,-2.4317,-2.4388,-2.4384,-2.4418,-2.4403,-2.4476,-2.4409,-2.4416,-2.4407,-2.4405,-2.441,-2.449,-2.4493,-2.4494,-2.4496,0,-2.4201,-2.4191,-2.4226,-2.4259,-2.4288,-2.4313,-2.4334,-2.4357,-2.4333,-2.4364,-2.4407,-2.4431,-2.4477,-2.4517,-2.4547,-2.4553,-2.4522,-2.4517,-2.4533,-2.4544,-2.455,-2.4549,-2.4326,-2.4513,-2.4511,-2.451,-2.4509,-2.4508,-2.433,-2.4371,-2.4385,-2.4426,-2.4439,-2.4459,-2.4497,-2.4494,-2.453,-2.4567,-2.4549,-2.46,-2.4613,-2.4651,-2.4661,-2.47,-2.4672,-2.4696,-2.4702,-2.4709,-2.4718,-2.4541,-2.4705,-2.4705,-2.4704,-2.4704,-2.4704,0,-2.4503,-2.4509,-2.4546,-2.4577,-2.4609,-2.4574,-2.4595,-2.4624,-2.467,-2.4685,-2.4716,-2.4765,-2.4803,-2.4802,-2.4837,-2.4868,-2.4854,-2.4878,-2.4877,-2.4879,-2.4741,-2.4724,-2.4889,-2.4889,-2.4889,-2.4889,-2.4889,-2.4889,-2.4597,-2.4667,-2.4659,-2.4733,-2.4739,-2.4788,-2.4804,-2.4822,-2.4834,-2.4892,-2.4923,-2.4921,-2.493,-2.4965,-2.4998,-2.4996,-2.5012,-2.5042,-2.5035,-2.4907,-2.4889,-2.4871,-2.4855,-2.5045,-2.5045,-2.517,-2.5171,-2.5172]},{"header":{"parameterUnit":"m.s-1","parameterCategory":1,"la1":30.2991,"la2":30.254,"lo1":-89.0895,"lo2":-89.0444,"dy":0.0017,"dx":0.0017,"nx":28,"ny":28,"refTime":"2025-01-20T03:00:00:Z","depth":0,"parameterNumber":3,"parameterNumberName":"V-component_of_WINDS"},"data":[0,0,0,0,0,0,0,0,0,0,0,0,0,0,0,0,0,0,0,0,0,0,0,0,0,0,0,0,0,0,0,0,0,0,0,0,0,0,0,0,0,0,0,0,0,0,0,0,0,0,0,0,0,0,0,0,0,0,-7.9691,-7.9691,0,-7.9723,-7.9723,-7.9723,-7.9607,-7.9603,-7.96,-7.9597,-7.9626,-7.963,-7.9634,0,0,0,0,0,0,0,0,0,0,0,0,0,-7.9526,-7.953,-7.9691,-7.9691,-7.9692,-7.9723,-7.9723,-7.9723,-7.9607,-7.9603,-7.9599,-7.9595,-7.9625,-7.963,-7.9635,0,0,0,0,0,0,0,0,0,0,0,0,0,-7.9582,-7.9531,-7.9691,-7.9638,-7.9633,-7.9722,-7.9723,-7.9723,-7.9608,-7.9603,-7.9598,-7.9593,-7.9623,-7.9629,-7.9635,-7.9776,0,0,-7.9654,-7.9656,0,0,0,0,0,0,0,0,-7.9579,-7.9588,-7.9645,-7.9641,-7.9637,-7.9655,-7.9676,-7.9741,-7.961,-7.9618,-7.9597,-7.9591,-7.964,-7.9644,-7.9662,-7.9778,-7.9779,-7.9654,-7.9658,-7.966,-7.9662,0,0,0,0,0,0,0,-7.9575,-7.9586,-7.9703,-7.9646,-7.9641,-7.9611,-7.9613,-7.9688,-7.9658,-7.9617,-7.9608,-7.9614,-7.9637,-7.9656,-7.9661,-7.9779,-7.9654,-7.9659,-7.9663,-7.9665,-8.0011,-8.0016,0,0,0,0,0,0,-7.9579,-7.9584,-7.9702,-7.9704,-7.9595,-7.9618,-7.9621,-7.9655,-7.9656,-7.9652,-7.9618,-7.9608,-7.9648,-7.9655,-7.9662,-7.9826,-7.966,-7.9666,-7.967,-8.0006,-8.0012,-8.0018,0,0,0,0,0,0,-7.9576,-7.9591,-7.9701,-7.9642,-7.9653,-7.9627,-7.9666,-7.9658,-7.9677,-7.9658,-7.9651,-7.9644,-7.9645,-7.9654,-7.9749,-7.9825,-7.9669,-7.9674,-7.9999,-8.0008,-8.0015,-8.0156,0,0,0,0,0,0,-7.9572,-7.959,-7.9645,-7.9644,-7.9657,-7.9789,-7.9671,-7.9662,-7.9688,-7.9676,-7.968,-7.9676,-7.9641,-7.974,-7.9755,-7.9831,-7.9679,-7.9992,-8.0003,-8.0013,-8.0145,-8.0168,-8.0189,0,0,0,0,0,-7.9566,-7.9683,-7.9648,-7.9663,-7.9725,-7.9793,-7.9801,-7.9759,-7.9695,-7.9749,-7.9736,-7.9675,-7.9815,-7.9751,-7.9766,-7.9845,-7.9987,-8.0,-8.0012,-8.0135,-8.0164,-8.0188,0,0,0,0,0,0,-7.9692,-7.9682,-7.9643,-7.9763,-7.978,-7.9774,-7.984,-7.9792,-7.9827,-7.9813,-7.976,-7.9761,-7.9866,-7.9865,-7.9794,-7.9981,-7.989,-7.9906,-7.9978,-8.0005,-8.0027,-8.0024,-7.9684,0,0,0,0,0,-7.9734,-7.9792,-7.9779,-7.9886,-7.9897,-7.9868,-7.9896,-7.9862,-7.9877,-7.9884,-7.9878,-7.9894,-7.9941,-7.9973,-8.0016,-8.0144,-8.0142,-8.0206,-8.0228,-8.0246,-8.0261,-8.0327,-8.0355,-8.0059,-8.0059,-8.0059,0,0,-7.9821,-7.9823,-7.9862,-7.9912,-7.9921,-7.998,-7.9874,-7.9942,-7.9985,-7.9894,-7.9983,-7.9979,-7.9993,-8.0106,-8.0155,-8.0108,-8.0342,-8.0262,-8.0277,-8.0281,-8.0343,-8.0371,-8.0396,-8.0068,-8.0066,-8.0065,0,0,-8.001,-8.0018,-8.0107,-8.0119,-8.0134,-8.0113,-8.0135,-8.0136,-8.013,-8.0219,-8.0151,-8.0201,-8.0284,-8.0297,-8.0314,-8.0507,-8.0452,-8.0522,-8.0637,-8.0702,-8.0726,-8.0746,-8.0813,-8.0838,-8.0537,-8.0537,-8.0537,0,-8.0116,-8.0204,-8.0159,-8.0231,-8.0254,-8.0175,-8.0264,-8.0277,-8.0306,-8.0323,-8.0271,-8.0372,-8.0376,-8.0489,-8.0536,-8.0554,-8.0575,-8.0521,-8.0726,-8.0746,-8.0764,-8.0828,-8.0853,-8.0545,-8.0544,-8.0543,-8.0543,0,-8.0332,-8.0395,-8.0465,-8.0495,-8.0526,-8.0606,-8.0572,-8.0609,-8.0573,-8.0557,-8.0648,-8.065,-8.0691,-8.0715,-8.0681,-8.0824,-8.0794,-8.0735,-8.0642,-8.0802,-8.086,-8.0884,-8.0557,-8.0554,-8.0552,-8.055,0,0,-8.0602,-8.0605,-8.0632,-8.0643,-8.0655,-8.0701,-8.0777,-8.0818,-8.0849,-8.0872,-8.0933,-8.1005,-8.095,-8.097,-8.0936,-8.0994,-8.1144,-8.0927,-8.0926,-8.0966,-8.13,-8.1343,-8.1372,-8.1109,-8.1113,-8.1117,-8.1298,0,-8.0786,-8.0917,-8.0878,-8.1009,-8.1065,-8.099,-8.1056,-8.107,-8.1057,-8.1102,-8.1087,-8.1139,-8.1063,-8.1074,-8.1128,-8.1115,-8.121,-8.1101,-8.1164,-8.1167,-8.1161,-8.1403,-8.1449,-8.1621,-8.1321,-8.1325,-8.1328,0,-8.1018,-8.105,-8.1187,-8.1187,-8.1209,-8.127,-8.1303,-8.1347,-8.136,-8.1346,-8.1369,-8.1323,-8.1396,-8.1304,-8.1403,-8.133,-8.1353,-8.135,-8.1356,-8.1359,-8.1256,-8.1411,-8.1674,-8.17,-8.1364,-8.1361,-8.1358,0,-8.1199,-8.1276,-8.1367,-8.138,-8.1383,-8.1427,-8.143,-8.1438,-8.1465,-8.1493,-8.151,-8.1547,-8.1567,-8.1596,-8.1561,-8.1497,-8.1665,-8.157,-8.1655,-8.1656,-8.1693,-8.1691,-8.1962,-8.1711,-8.171,-8.171,-8.1709,0,-8.1408,-8.1494,-8.1448,-8.1504,-8.1598,-8.1552,-8.1646,-8.1641,-8.1649,-8.1701,-8.1639,-8.169,-8.1641,-8.1687,-8.1659,-8.1745,-8.1755,-8.1745,-8.1737,-8.175,-8.1751,-8.1763,-8.175,-8.1717,-8.1715,-8.1714,-8.1713,0,-8.1625,-8.1598,-8.1692,-8.1688,-8.1688,-8.1758,-8.1753,-8.1804,-8.1787,-8.1855,-8.1868,-8.1841,-8.1892,-8.186,-8.1911,-8.1893,-8.2004,-8.198,-8.2,-8.1993,-8.2079,-8.2071,-8.2366,-8.2402,-8.213,-8.2132,-8.2135,0,-8.176,-8.1824,-8.1827,-8.1858,-8.1865,-8.1916,-8.1943,-8.19,-8.193,-8.1949,-8.1998,-8.2043,-8.2077,-8.2161,-8.2146,-8.2184,-8.216,-8.226,-8.2165,-8.2176,-8.2159,-8.2155,-8.2161,-8.2279,-8.2283,-8.2285,-8.2287,0,-8.2001,-8.1984,-8.2025,-8.2062,-8.2096,-8.2122,-8.2144,-8.2173,-8.2129,-8.2166,-8.2217,-8.2244,-8.2296,-8.2341,-8.2374,-8.2375,-8.2324,-8.2318,-8.2339,-8.2353,-8.2361,-8.2356,-8.2051,-8.2311,-8.2308,-8.2307,-8.2305,-8.2305,-8.218,-8.2233,-8.2243,-8.229,-8.2302,-8.2323,-8.237,-8.2359,-8.2402,-8.2441,-8.2413,-8.2473,-8.2483,-8.2521,-8.253,-8.2575,-8.2534,-8.2566,-8.2573,-8.2581,-8.2593,-8.2355,-8.2581,-8.2581,-8.258,-8.2579,-8.2579,0,-8.2416,-8.2419,-8.2463,-8.2495,-8.2532,-8.2481,-8.2502,-8.2536,-8.259,-8.2604,-8.2639,-8.2697,-8.2741,-8.2729,-8.2767,-8.2806,-8.2784,-8.2818,-8.2814,-8.2815,-8.2628,-8.2605,-8.2835,-8.2835,-8.2835,-8.2835,-8.2835,-8.2835,-8.2543,-8.2631,-8.2615,-8.2707,-8.2708,-8.2767,-8.2783,-8.2802,-8.2812,-8.288,-8.2916,-8.2909,-8.2912,-8.295,-8.2987,-8.2982,-8.2999,-8.3041,-8.3028,-8.2853,-8.2828,-8.2804,-8.2782,-8.3046,-8.3046,-8.321,-8.3212,-8.3213]}]]